Noatak, AK

11:34 AM AKST on December 10, 2016 (GMT -0900)
Noatak

Weather History for PAWN - May, 2014

Change the Weather History Date:

Friday, May 16, 2014

  Actual Average Record
Temperature  
Mean Temperature 36 °F -  
Max Temperature 39 °F 41 °F 57 °F (2016)
Min Temperature 32 °F 25 °F 10 °F (2013)
Degree Days  
Heating Degree Days 30    
Moisture  
Dew Point 33 °F    
Average Humidity 90    
Maximum Humidity 93    
Minimum Humidity 87    
Precipitation  
Precipitation 0.00 in - - ()
Sea Level Pressure  
Sea Level Pressure 30.24 in    
Wind  
Wind Speed 7 mph (South)    
Max Wind Speed 13 mph    
Max Gust Speed 17 mph    
Visibility 6 miles    
Events      
Averages and records for this station are not official NWS values.
T = Trace of Precipitation, MM = Missing Value Source: NWS Daily Summary

Daily Weather History Graph

Daily Weather History Graph

Search for Another Location

Airport or City:

Trip Planner

Search our weather history database for the weather conditions in past years. The results will help you decide how hot, cold, wet, or windy it might be!

Date:

Astronomy

May. 16, 2014 Rise Set
Actual Time 4:40 AM AKDT 1:00 AM AKDT
Civil Twilight Sun does not rise Sun does not rise
Nautical Twilight Sun does not rise Sun does not rise
Astronomical Twilight Sun does not rise Sun does not rise
Moon 2:07 AM AKDT (5/16) 6:41 AM AKDT (5/16)
Length of Visible Light 24h 00m
Length of Day
20h 19m
Waning Gibbous, 95% of the Moon is Illuminated
May 16
Waning Gibbous
May 21
Last Quarter
May 28
New
Jun 5
First Quarter
Jun 12
Full

Hourly Weather History & Observations

Time (AKDT) Temp. Windchill Dew Point Humidity Pressure Visibility Wind Dir Wind Speed Gust Speed Precip Events Conditions
12:16 AM 33.8 °F 27.0 °F 30.2 °F 87% 30.26 in 7.0 mi SSW 8.1 mph - N/A   Overcast
12:36 AM 33.8 °F 28.6 °F 30.2 °F 87% 30.26 in 10.0 mi SSW 5.8 mph - N/A   Overcast
12:56 AM 33.8 °F 28.6 °F 30.2 °F 87% 30.26 in 2.5 mi SSW 5.8 mph - N/A   Overcast
1:16 AM 33.8 °F 30.8 °F 30.2 °F 87% 30.26 in 0.5 mi SSW 3.5 mph - N/A   Overcast
1:36 AM 33.8 °F 27.7 °F 30.2 °F 87% 30.26 in 3.0 mi SSW 6.9 mph - N/A   Overcast
1:56 AM 33.8 °F 29.6 °F 30.2 °F 87% 30.27 in 3.0 mi SSW 4.6 mph - N/A   Overcast
2:16 AM 33.8 °F 26.4 °F 30.2 °F 87% 30.27 in 5.0 mi SW 9.2 mph - N/A   Overcast
2:36 AM 33.8 °F 27.0 °F 30.2 °F 87% 30.27 in 4.0 mi SSW 8.1 mph - N/A   Overcast
2:56 AM 33.8 °F 25.8 °F 30.2 °F 87% 30.26 in 10.0 mi SSW 10.4 mph - N/A   Overcast
3:16 AM 33.8 °F 26.4 °F 30.2 °F 87% 30.27 in 9.0 mi SSW 9.2 mph - N/A   Overcast
3:36 AM 32.0 °F 24.2 °F 30.2 °F 93% 30.27 in 10.0 mi SW 9.2 mph - N/A   Overcast
3:56 AM 32.0 °F - 28.4 °F 87% 30.27 in 10.0 mi Calm Calm - N/A   Overcast
4:16 AM 32.0 °F 28.7 °F 28.4 °F 87% 30.27 in 10.0 mi South 3.5 mph - N/A   Overcast
4:36 AM 32.0 °F 27.5 °F 28.4 °F 87% 30.27 in 10.0 mi South 4.6 mph - N/A   Overcast
4:56 AM 32.0 °F 26.4 °F 28.4 °F 87% 30.27 in 10.0 mi South 5.8 mph - N/A   Overcast
5:16 AM 32.0 °F 27.5 °F 28.4 °F 87% 30.27 in 10.0 mi South 4.6 mph - N/A   Overcast
5:36 AM 32.0 °F 24.8 °F 28.4 °F 87% 30.27 in 10.0 mi South 8.1 mph - N/A   Overcast
5:56 AM 32.0 °F 25.6 °F 30.2 °F 93% 30.27 in 10.0 mi South 6.9 mph - N/A   Overcast
6:16 AM 32.0 °F 28.7 °F 30.2 °F 93% 30.28 in 2.0 mi SSE 3.5 mph - N/A   Overcast
6:36 AM 33.8 °F 29.6 °F 30.2 °F 87% 30.28 in 0.2 mi South 4.6 mph - N/A   Overcast
6:56 AM 33.8 °F 29.6 °F 30.2 °F 87% 30.28 in 0.2 mi SSE 4.6 mph - N/A   Overcast
7:16 AM 33.8 °F 28.6 °F 30.2 °F 87% 30.27 in 0.2 mi South 5.8 mph - N/A   Overcast
7:36 AM 33.8 °F 27.0 °F 30.2 °F 87% 30.28 in 0.2 mi SSW 8.1 mph - N/A   Overcast
7:56 AM 33.8 °F 28.6 °F 30.2 °F 87% 30.27 in 0.5 mi South 5.8 mph - N/A   Overcast
8:16 AM 33.8 °F 27.7 °F 32.0 °F 93% 30.27 in 0.8 mi South 6.9 mph - N/A   Overcast
8:36 AM 33.8 °F 27.0 °F 32.0 °F 93% 30.28 in 3.0 mi South 8.1 mph - N/A   Overcast
8:56 AM 35.6 °F 29.2 °F 32.0 °F 87% 30.27 in 2.0 mi South 8.1 mph - N/A   Overcast
9:16 AM 35.6 °F 29.9 °F 32.0 °F 87% 30.27 in 1.0 mi South 6.9 mph - N/A   Overcast
9:36 AM 35.6 °F 29.9 °F 33.8 °F 93% 30.27 in 1.0 mi South 6.9 mph - N/A   Overcast
9:56 AM 35.6 °F 28.0 °F 33.8 °F 93% 30.27 in 5.0 mi South 10.4 mph 16.1 mph N/A   Overcast
10:16 AM 35.6 °F 27.5 °F 33.8 °F 93% 30.27 in 7.0 mi SSW 11.5 mph - N/A   Overcast
10:36 AM 35.6 °F 28.0 °F 33.8 °F 93% 30.27 in 2.0 mi SSW 10.4 mph - N/A   Overcast
10:56 AM 35.6 °F 29.2 °F 33.8 °F 93% 30.27 in 5.0 mi SSW 8.1 mph - N/A   Overcast
11:16 AM 35.6 °F 28.6 °F 33.8 °F 93% 30.27 in 1.5 mi South 9.2 mph - N/A   Overcast
11:36 AM 35.6 °F 29.2 °F 33.8 °F 93% 30.27 in 3.0 mi South 8.1 mph 17.3 mph N/A   Overcast
11:56 AM 35.6 °F 29.2 °F 33.8 °F 93% 30.27 in 3.0 mi South 8.1 mph - N/A   Overcast
12:16 PM 35.6 °F 27.1 °F 33.8 °F 93% 30.27 in 6.0 mi South 12.7 mph - N/A   Overcast
12:36 PM 37.4 °F 30.8 °F 33.8 °F 87% 30.27 in 10.0 mi SSW 9.2 mph - N/A   Overcast
12:56 PM 37.4 °F 29.8 °F 33.8 °F 87% 30.26 in 8.0 mi SSW 11.5 mph - N/A   Overcast
1:16 PM 37.4 °F 29.8 °F 33.8 °F 87% 30.27 in 10.0 mi SSW 11.5 mph 17.3 mph N/A   Overcast
1:36 PM 37.4 °F 29.3 °F 33.8 °F 87% 30.27 in 5.0 mi SSW 12.7 mph - N/A   Overcast
1:56 PM 37.4 °F 30.3 °F 33.8 °F 87% 30.27 in 5.0 mi SSW 10.4 mph - N/A   Overcast
2:16 PM 37.4 °F 31.4 °F 35.6 °F 93% 30.27 in 7.0 mi SW 8.1 mph - N/A   Overcast
2:36 PM 37.4 °F 29.8 °F 35.6 °F 93% 30.26 in 3.0 mi SSW 11.5 mph - N/A   Overcast
2:56 PM 37.4 °F 29.8 °F 35.6 °F 93% 30.26 in 3.0 mi SSW 11.5 mph - N/A   Overcast
3:16 PM 37.4 °F 30.3 °F 35.6 °F 93% 30.26 in 10.0 mi SSW 10.4 mph - N/A   Mostly Cloudy
3:36 PM 37.4 °F 30.3 °F 35.6 °F 93% 30.26 in 2.5 mi SW 10.4 mph - N/A   Overcast
3:56 PM 37.4 °F 30.3 °F 35.6 °F 93% 30.26 in 2.0 mi SSW 10.4 mph - N/A   Overcast
4:16 PM 37.4 °F 32.1 °F 35.6 °F 93% 30.25 in 3.0 mi SSW 6.9 mph - N/A   Overcast
4:36 PM 37.4 °F 31.4 °F 35.6 °F 93% 30.25 in 5.0 mi SSW 8.1 mph - N/A   Overcast
4:56 PM 37.4 °F 32.1 °F 35.6 °F 93% 30.24 in 10.0 mi South 6.9 mph - N/A   Overcast
5:16 PM 37.4 °F 32.8 °F 35.6 °F 93% 30.23 in 5.0 mi SSE 5.8 mph - N/A   Overcast
5:36 PM 37.4 °F 33.8 °F 35.6 °F 93% 30.23 in 1.2 mi SSE 4.6 mph - N/A   Overcast
5:56 PM 37.4 °F 31.4 °F 35.6 °F 93% 30.22 in 2.0 mi SE 8.1 mph - N/A   Overcast
6:16 PM 37.4 °F 32.1 °F 35.6 °F 93% 30.21 in 5.0 mi SE 6.9 mph - N/A   Overcast
6:36 PM 39.2 °F 32.5 °F 35.6 °F 87% 30.20 in 10.0 mi SSE 10.4 mph - N/A   Overcast
6:56 PM 39.2 °F 32.5 °F 35.6 °F 87% 30.19 in 5.0 mi SSE 10.4 mph - N/A   Overcast
7:16 PM 39.2 °F 32.5 °F 35.6 °F 87% 30.19 in 10.0 mi South 10.4 mph - N/A   Overcast
7:36 PM 39.2 °F 33.0 °F 35.6 °F 87% 30.18 in 10.0 mi SSE 9.2 mph - N/A   Overcast
7:56 PM 39.2 °F 33.6 °F 35.6 °F 87% 30.17 in 7.0 mi SSE 8.1 mph - N/A   Overcast
8:16 PM 39.2 °F 32.5 °F 35.6 °F 87% 30.17 in 9.0 mi SSE 10.4 mph - N/A   Overcast
8:36 PM 39.2 °F 33.0 °F 37.4 °F 93% 30.16 in 10.0 mi South 9.2 mph - N/A   Overcast
8:56 PM 39.2 °F 33.6 °F 35.6 °F 87% 30.16 in 10.0 mi South 8.1 mph - N/A   Overcast
9:16 PM 39.2 °F 33.6 °F 35.6 °F 87% 30.15 in 10.0 mi South 8.1 mph - N/A   Overcast
9:36 PM 39.2 °F 33.6 °F 35.6 °F 87% 30.15 in 10.0 mi South 8.1 mph - N/A   Overcast
9:56 PM 39.2 °F 33.6 °F 35.6 °F 87% 30.15 in 10.0 mi South 8.1 mph - N/A   Overcast
10:16 PM 39.2 °F 33.0 °F 35.6 °F 87% 30.14 in 9.0 mi South 9.2 mph - N/A   Overcast
10:36 PM 37.4 °F 32.1 °F 35.6 °F 93% 30.14 in 7.0 mi SSW 6.9 mph - N/A   Overcast
10:56 PM 37.4 °F 32.1 °F 35.6 °F 93% 30.13 in 9.0 mi SW 6.9 mph - N/A   Overcast
11:16 PM 37.4 °F 33.8 °F 33.8 °F 87% 30.12 in 10.0 mi SW 4.6 mph - N/A   Overcast
11:36 PM 35.6 °F 31.7 °F 33.8 °F 93% 30.12 in 10.0 mi SSW 4.6 mph - N/A   Overcast
11:56 PM 35.6 °F 29.9 °F 33.8 °F 93% 30.11 in 10.0 mi SSW 6.9 mph - N/A   Overcast